Flag for Turkey Weather past 2 weeks in Istanbul, Turkey

Now
73 °F

Clear.


Feels Like: 72 °F
Forecast: 76 / 86 °F
Wind: 1 mph from North

Location: Istanbul Ataturk Airport

Current Time: Aug 22, 2014 at 7:40:16 AM

Latest Report: Aug 22, 2014 at 6:50 AM


Visibility: 10 mi

Pressure: 29.98 "Hg

Humidity: 89%

Dew point: 70 °F

Location of IstanbulLocation

Historic Weather in Istanbul — Graph

°F

Istanbul temperature yesterday

Maximum temperature yesterday: 84 °F (at 6:50 PM)
Minimum temperature yesterday: 72 °F (at 4:50 AM)
Average temperature yesterday: 79 °F

Past Weeks' High & Low Weather Summary

 TemperatureHumidityPressure
High93 °F (Aug 16, 4:20 PM)94% (Aug 7, 4:20 PM)30.04 "Hg (Aug 7, 4:20 PM)
Low64 °F (Aug 7, 4:20 PM)26% (Aug 12, 2:20 PM)29.68 "Hg (Aug 7, 6:20 AM)
Average79 °F66%29.88 "Hg
* Reported Aug 7 6:20 AM — Aug 22 6:20 AM, Istanbul, Weather by CustomWeather, © 2014

Note: Actual official high and low records may vary slightly from our data, if they occured in-between our weather recording intervals... More about our weather records

Advertising

Istanbul weather history for previous 24 hours

 ConditionsComfort  
Time TempWeatherWind HumidityBarometerVisibility
6:20 AM
Aug 22
73 °FClear.1 mph89%29.98 "Hg10 mi
5:50 AM75 °FClear.2 mph83%29.95 "Hg10 mi
5:20 AM75 °FClear.2 mph83%29.95 "Hg10 mi
4:50 AM75 °FClear.2 mph83%29.95 "Hg10 mi
4:20 AM75 °FClear.2 mph83%29.95 "Hg10 mi
3:50 AM75 °FClear.1 mph78%29.95 "Hg10 mi
3:20 AM77 °FClear.2 mph74%29.95 "Hg10 mi
2:50 AM75 °FClear.2 mph83%29.95 "Hg10 mi
2:20 AM77 °FClear.2 mph79%29.95 "Hg10 mi
1:50 AM77 °FPassing clouds.3 mph74%29.98 "HgN/A
1:20 AM79 °FPassing clouds.5 mph70%29.95 "HgN/A
12:50 AM79 °FPassing clouds.5 mph70%29.95 "HgN/A
12:20 AM79 °FPassing clouds.3 mph65%29.98 "HgN/A
11:50 PM
Aug 21
79 °FPassing clouds.3 mph65%29.98 "HgN/A
11:20 PM79 °FPassing clouds.6 mph65%29.98 "HgN/A
10:50 PM81 °FPassing clouds.5 mph62%29.98 "HgN/A
10:20 PM81 °FPassing clouds.5 mph62%29.98 "HgN/A
9:50 PM81 °FClear.6 mph62%29.98 "Hg10 mi
9:20 PM82 °FPassing clouds.7 mph58%29.95 "HgN/A
8:50 PM82 °FPassing clouds.8 mph58%29.95 "HgN/A
8:20 PM84 °FPassing clouds.8 mph55%29.95 "HgN/A
7:50 PM84 °FPassing clouds.7 mph55%29.95 "HgN/A
7:20 PM82 °FPassing clouds.7 mph58%29.95 "HgN/A
6:50 PM84 °FPassing clouds.7 mph55%29.95 "HgN/A
6:20 PM82 °FPassing clouds.3 mph55%29.95 "HgN/A
5:50 PM82 °FPassing clouds.6 mph58%29.95 "HgN/A
5:20 PM82 °FPassing clouds.6 mph58%29.98 "HgN/A
4:50 PM82 °FPassing clouds.7 mph62%29.98 "HgN/A
4:20 PM82 °FPassing clouds.7 mph62%29.98 "HgN/A
3:50 PM82 °FPassing clouds.8 mph62%29.98 "HgN/A
3:20 PM81 °FPassing clouds.9 mph66%29.98 "HgN/A
2:50 PM81 °FPassing clouds.10 mph70%30.01 "HgN/A
2:20 PM81 °FPassing clouds.10 mph66%30.01 "HgN/A
1:50 PM81 °FPassing clouds.8 mph66%30.01 "HgN/A
1:20 PM82 °FPassing clouds.7 mph62%30.01 "HgN/A
12:50 PM81 °FPassing clouds.7 mph66%30.01 "HgN/A
12:20 PM81 °FScattered clouds.8 mph66%30.01 "HgN/A
11:50 AM81 °FScattered clouds.9 mph66%30.01 "HgN/A
11:20 AM81 °FScattered clouds.9 mph66%30.01 "HgN/A
10:50 AM81 °FScattered clouds.9 mph66%30.01 "HgN/A
10:20 AM79 °FScattered clouds.8 mph65%30.01 "HgN/A
9:50 AM79 °FScattered clouds.8 mph70%30.01 "HgN/A
9:20 AM79 °FScattered clouds.9 mph70%30.01 "HgN/A
8:50 AM77 °FPassing clouds.6 mph69%30.01 "HgN/A
8:20 AM77 °FPassing clouds.6 mph74%29.98 "HgN/A
7:50 AM77 °FPassing clouds.5 mph74%29.98 "HgN/A
7:20 AM75 °FPassing clouds.5 mph78%29.98 "HgN/A
Weather by CustomWeather, © 2014

See weather overviewHow to use our weather pages